Kingman, AZ

7:44 AM MST on May 25, 2020 (GMT -0700)
Kingman

Weather History for KIGM - March, 2020

Change the Weather History Date:

Tuesday, March 31, 2020

  Actual Average Record
Temperature  
Mean Temperature 53 °F -  
Max Temperature 71 °F - 88 °F (1934)
Min Temperature 35 °F - 26 °F (1936)
Degree Days  
Heating Degree Days 12    
Growing Degree Days 3 (Base 50)    
Moisture  
Dew Point 30 °F    
Average Humidity 44    
Maximum Humidity 82    
Minimum Humidity 12    
Precipitation  
Precipitation 0.00 in - 1.02 in (1912)
Sea Level Pressure  
Sea Level Pressure 29.96 in    
Wind  
Wind Speed 4 mph (SW)    
Max Wind Speed 14 mph    
Max Gust Speed -    
Visibility 10 miles    
Events      
T = Trace of Precipitation, MM = Missing Value Source: NWS Daily Summary

Daily Weather History Graph

Daily Weather History Graph

Search for Another Location

Airport or City:

Astronomy

Mar. 31, 2020 Rise Set
Actual Time 6:22 AM MST 6:56 PM MST
Civil Twilight 5:57 AM MST 7:22 PM MST
Nautical Twilight 5:27 AM MST 7:52 PM MST
Astronomical Twilight 4:56 AM MST 8:23 PM MST
Moon 11:01 AM MST (3/31) 1:00 AM MST (3/31)
Length of Visible Light 13h 25m
Length of Day
12h 33m
Waxing Crescent, 43% of the Moon is Illuminated
Mar 31
Waxing Crescent
Apr 1
First Quarter
Apr 7
Full
Apr 14
Last Quarter
Apr 22
New

Hourly Weather History & Observations

Time (MST) Temp. Windchill Dew Point Humidity Pressure Visibility Wind Dir Wind Speed Gust Speed Precip Events Conditions
1:51 AM 36.0 °F - 30.9 °F 82% 30.09 in 10.0 mi Calm Calm - N/A   Clear
2:51 AM 36.0 °F - 30.0 °F 79% 30.07 in 10.0 mi Calm Calm - N/A   Clear
3:51 AM 36.0 °F - 30.0 °F 79% 30.06 in 10.0 mi Calm Calm - N/A   Clear
4:51 AM 37.9 °F - 28.0 °F 68% 30.04 in 10.0 mi Calm Calm - N/A   Clear
5:51 AM 37.0 °F 34.5 °F 30.0 °F 76% 30.04 in 10.0 mi SSW 3.5 mph - N/A   Clear
6:51 AM 37.0 °F - 32.0 °F 82% 30.06 in 10.0 mi Calm Calm - N/A   Clear
7:51 AM 48.9 °F - 32.0 °F 52% 30.06 in 10.0 mi SSE 4.6 mph - N/A   Clear
8:51 AM 55.9 °F - 35.1 °F 45% 30.05 in 10.0 mi NNW 4.6 mph - N/A   Clear
9:51 AM 61.0 °F - 30.0 °F 31% 30.04 in 10.0 mi North 5.8 mph - N/A   Clear
10:51 AM 66.0 °F - 32.0 °F 28% 30.02 in 10.0 mi Variable 3.5 mph - N/A   Clear
11:51 AM 68.0 °F - 27.0 °F 21% 29.99 in 10.0 mi Calm Calm - N/A   Clear
12:51 PM 69.1 °F - 30.0 °F 23% 29.96 in 10.0 mi Variable 5.8 mph - N/A   Clear
1:51 PM 71.1 °F - 28.0 °F 20% 29.93 in 10.0 mi North - - N/A   Clear
2:51 PM 70.0 °F - 28.0 °F 21% 29.91 in 10.0 mi WSW 12.7 mph - N/A   Clear
3:51 PM 69.1 °F - 26.1 °F 20% 29.90 in 10.0 mi WSW 13.8 mph - N/A   Clear
4:51 PM 66.9 °F - 26.1 °F 21% 29.87 in 10.0 mi SW 11.5 mph - N/A   Clear
5:51 PM 64.9 °F - 30.9 °F 28% 29.87 in 10.0 mi SW 10.4 mph - N/A   Clear
6:51 PM 59.0 °F - 33.1 °F 38% 29.86 in 10.0 mi SW 6.9 mph - N/A   Clear
8:51 PM 53.1 °F - 35.1 °F 50% 29.83 in 10.0 mi SSW 9.2 mph - N/A   Clear
9:51 PM 48.9 °F - 36.0 °F 61% 29.82 in 10.0 mi SW 9.2 mph - N/A   Clear
11:51 PM 52.0 °F - 33.1 °F 49% 29.77 in 10.0 mi South 10.4 mph - N/A   Clear